Year,Month,Day,Hour,Minute,Value (Times are PST for windspeed in km/hr)
2014,11,06,00,00,0.00
2014,11,06,00,01,0.00
2014,11,06,00,02,0.00
2014,11,06,00,03,0.00
2014,11,06,00,04,0.00
2014,11,06,00,05,0.00
2014,11,06,00,06,0.00
2014,11,06,00,07,0.00
2014,11,06,00,08,0.00
2014,11,06,00,09,0.00
2014,11,06,00,10,0.00
2014,11,06,00,11,0.00
2014,11,06,00,12,0.00
2014,11,06,00,13,0.00
2014,11,06,00,14,0.00
2014,11,06,00,15,0.00
2014,11,06,00,16,0.00
2014,11,06,00,17,0.00
2014,11,06,00,18,0.00
2014,11,06,00,19,0.00
2014,11,06,00,20,0.00
2014,11,06,00,21,0.00
2014,11,06,00,22,0.00
2014,11,06,00,23,0.00
2014,11,06,00,24,0.00
2014,11,06,00,25,0.00
2014,11,06,00,26,0.00
2014,11,06,00,27,0.00
2014,11,06,00,28,0.00
2014,11,06,00,29,0.00
2014,11,06,00,30,0.00
2014,11,06,00,31,0.10
2014,11,06,00,32,0.00
2014,11,06,00,33,0.00
2014,11,06,00,34,0.00
2014,11,06,00,35,0.00
2014,11,06,00,36,0.00
2014,11,06,00,37,0.00
2014,11,06,00,38,0.10
2014,11,06,00,39,0.10
2014,11,06,00,40,1.60
2014,11,06,00,41,1.30
2014,11,06,00,42,0.00
2014,11,06,00,43,0.00
2014,11,06,00,44,0.00
2014,11,06,00,45,0.00
2014,11,06,00,46,0.00
2014,11,06,00,47,0.10
2014,11,06,00,48,1.60
2014,11,06,00,49,0.20
2014,11,06,00,50,0.10
2014,11,06,00,51,0.20
2014,11,06,00,52,0.00
2014,11,06,00,53,0.00
2014,11,06,00,54,0.00
2014,11,06,00,55,0.00
2014,11,06,00,56,0.00
2014,11,06,00,57,0.00
2014,11,06,00,58,0.00
2014,11,06,00,59,0.00
2014,11,06,01,00,0.00
2014,11,06,01,01,0.00
2014,11,06,01,02,0.00
2014,11,06,01,03,0.00
2014,11,06,01,04,0.00
2014,11,06,01,05,0.00
2014,11,06,01,06,0.00
2014,11,06,01,07,0.00
2014,11,06,01,08,0.00
2014,11,06,01,09,0.00
2014,11,06,01,10,0.00
2014,11,06,01,11,0.00
2014,11,06,01,12,0.00
2014,11,06,01,13,0.00
2014,11,06,01,14,0.00
2014,11,06,01,15,0.00
2014,11,06,01,16,0.00
2014,11,06,01,17,0.00
2014,11,06,01,18,0.00
2014,11,06,01,19,0.00
2014,11,06,01,20,0.00
2014,11,06,01,21,0.00
2014,11,06,01,22,0.00
2014,11,06,01,23,0.00
2014,11,06,01,24,0.00
2014,11,06,01,25,0.10
2014,11,06,01,26,0.00
2014,11,06,01,27,0.00
2014,11,06,01,28,0.00
2014,11,06,01,29,0.00
2014,11,06,01,30,0.00
2014,11,06,01,31,0.00
2014,11,06,01,32,0.00
2014,11,06,01,33,0.00
2014,11,06,01,34,0.00
2014,11,06,01,35,0.00
2014,11,06,01,36,1.10
2014,11,06,01,37,0.10
2014,11,06,01,38,0.00
2014,11,06,01,39,0.10
2014,11,06,01,40,0.00
2014,11,06,01,41,0.00
2014,11,06,01,42,0.00
2014,11,06,01,43,0.00
2014,11,06,01,44,0.00
2014,11,06,01,45,0.00
2014,11,06,01,46,0.00
2014,11,06,01,47,0.00
2014,11,06,01,48,0.00
2014,11,06,01,49,0.00
2014,11,06,01,50,0.00
2014,11,06,01,51,0.00
2014,11,06,01,52,0.00
2014,11,06,01,53,0.00
2014,11,06,01,54,0.00
2014,11,06,01,55,0.00
2014,11,06,01,56,0.10
2014,11,06,01,57,0.60
2014,11,06,01,58,0.00
2014,11,06,01,59,0.00
2014,11,06,02,00,1.00
2014,11,06,02,01,0.00
2014,11,06,02,02,0.00
2014,11,06,02,03,0.00
2014,11,06,02,04,0.00
2014,11,06,02,05,0.00
2014,11,06,02,06,0.00
2014,11,06,02,07,0.00
2014,11,06,02,08,0.00
2014,11,06,02,09,0.00
2014,11,06,02,10,0.00
2014,11,06,02,11,0.20
2014,11,06,02,12,0.10
2014,11,06,02,13,0.10
2014,11,06,02,14,0.00
2014,11,06,02,15,0.00
2014,11,06,02,16,0.00
2014,11,06,02,17,0.40
2014,11,06,02,18,0.20
2014,11,06,02,19,0.00
2014,11,06,02,20,0.00
2014,11,06,02,21,0.20
2014,11,06,02,22,0.00
2014,11,06,02,23,0.20
2014,11,06,02,24,0.00
2014,11,06,02,25,0.00
2014,11,06,02,26,0.00
2014,11,06,02,27,0.00
2014,11,06,02,28,0.00
2014,11,06,02,29,0.00
2014,11,06,02,30,0.00
2014,11,06,02,31,0.00
2014,11,06,02,32,0.10
2014,11,06,02,33,0.00
2014,11,06,02,34,0.00
2014,11,06,02,35,0.00
2014,11,06,02,36,0.00
2014,11,06,02,37,0.00
2014,11,06,02,38,0.00
2014,11,06,02,39,0.10
2014,11,06,02,40,0.10
2014,11,06,02,41,0.00
2014,11,06,02,42,0.00
2014,11,06,02,43,0.00
2014,11,06,02,44,0.00
2014,11,06,02,45,0.00
2014,11,06,02,46,0.00
2014,11,06,02,47,0.00
2014,11,06,02,48,0.00
2014,11,06,02,49,0.00
2014,11,06,02,50,0.00
2014,11,06,02,51,0.00
2014,11,06,02,52,0.00
2014,11,06,02,53,0.00
2014,11,06,02,54,0.00
2014,11,06,02,55,0.00
2014,11,06,02,56,0.00
2014,11,06,02,57,0.00
2014,11,06,02,58,0.00
2014,11,06,02,59,0.00
2014,11,06,03,00,0.00
2014,11,06,03,01,0.00
2014,11,06,03,34,0.00
2014,11,06,03,35,0.00
2014,11,06,03,36,0.00
2014,11,06,03,37,0.00
2014,11,06,03,38,0.00
2014,11,06,03,39,0.00
2014,11,06,03,40,0.00
2014,11,06,03,41,0.00
2014,11,06,03,42,0.00
2014,11,06,03,43,0.00
2014,11,06,03,44,0.00
2014,11,06,03,45,0.00
2014,11,06,03,46,0.00
2014,11,06,03,47,0.00
2014,11,06,03,48,0.00
2014,11,06,03,49,0.30
2014,11,06,03,50,0.00
2014,11,06,03,51,0.00
2014,11,06,03,52,0.00
2014,11,06,03,53,0.00
2014,11,06,03,54,0.00
2014,11,06,03,55,0.00
2014,11,06,03,56,0.00
2014,11,06,03,57,0.00
2014,11,06,03,58,0.00
2014,11,06,03,59,0.00
2014,11,06,04,00,0.00
2014,11,06,04,01,0.00
2014,11,06,04,02,0.00
2014,11,06,04,03,0.00
2014,11,06,04,04,0.00
2014,11,06,04,05,0.00
2014,11,06,04,06,0.00
2014,11,06,04,07,0.00
2014,11,06,04,08,0.00
2014,11,06,04,09,0.00
2014,11,06,04,10,0.00
2014,11,06,04,11,0.00
2014,11,06,04,12,0.00
2014,11,06,04,13,0.00
2014,11,06,04,14,0.00
2014,11,06,04,15,0.00
2014,11,06,04,16,0.00
2014,11,06,04,17,0.00
2014,11,06,04,18,0.00
2014,11,06,04,19,0.00
2014,11,06,04,20,0.00
2014,11,06,04,21,0.00
2014,11,06,04,22,0.00
2014,11,06,04,23,0.00
2014,11,06,04,24,0.00
2014,11,06,04,25,0.00
2014,11,06,04,26,0.10
2014,11,06,04,27,0.00
2014,11,06,04,28,0.00
2014,11,06,04,29,0.00
2014,11,06,04,30,0.00
2014,11,06,04,31,0.00
2014,11,06,04,32,0.00
2014,11,06,04,33,0.00
2014,11,06,04,34,0.00
2014,11,06,04,35,0.00
2014,11,06,04,36,0.30
2014,11,06,04,37,0.00
2014,11,06,04,38,0.00
2014,11,06,04,39,0.00
2014,11,06,04,40,0.00
2014,11,06,04,41,0.00
2014,11,06,04,42,0.00
2014,11,06,04,43,0.00
2014,11,06,04,44,0.00
2014,11,06,04,45,0.00
2014,11,06,04,46,0.00
2014,11,06,04,47,0.00
2014,11,06,04,48,0.00
2014,11,06,04,49,0.00
2014,11,06,04,50,0.00
2014,11,06,04,51,0.00
2014,11,06,04,52,0.00
2014,11,06,04,53,0.00
2014,11,06,04,54,0.20
2014,11,06,04,55,0.00
2014,11,06,04,56,0.10
2014,11,06,04,57,0.00
2014,11,06,04,58,0.00
2014,11,06,04,59,1.90
2014,11,06,05,00,0.50
2014,11,06,05,01,0.00
2014,11,06,05,02,0.00
2014,11,06,05,03,0.00
2014,11,06,05,04,0.00
2014,11,06,05,05,0.00
2014,11,06,05,06,0.00
2014,11,06,05,07,0.00
2014,11,06,05,08,0.50
2014,11,06,05,09,5.10
2014,11,06,05,10,3.40
2014,11,06,05,11,0.00
2014,11,06,05,12,0.10
2014,11,06,05,13,0.00
2014,11,06,05,14,0.00
2014,11,06,05,15,0.00
2014,11,06,05,16,1.50
2014,11,06,05,17,3.70
2014,11,06,05,18,4.90
2014,11,06,05,19,4.80
2014,11,06,05,20,1.00
2014,11,06,05,21,3.50
2014,11,06,05,22,4.80
2014,11,06,05,23,4.30
2014,11,06,05,24,0.00
2014,11,06,05,25,1.30
2014,11,06,05,26,4.30
2014,11,06,05,27,0.40
2014,11,06,05,28,0.00
2014,11,06,05,29,0.10
2014,11,06,05,30,0.00
2014,11,06,05,31,0.00
2014,11,06,05,32,0.00
2014,11,06,05,33,0.00
2014,11,06,05,34,0.10
2014,11,06,05,35,0.20
2014,11,06,05,36,0.10
2014,11,06,05,37,0.00
2014,11,06,05,38,0.00
2014,11,06,05,39,0.90
2014,11,06,05,40,0.20
2014,11,06,05,41,0.20
2014,11,06,05,42,0.00
2014,11,06,05,43,0.00
2014,11,06,05,44,0.00
2014,11,06,05,45,0.00
2014,11,06,05,46,0.00
2014,11,06,05,47,0.00
2014,11,06,05,48,0.00
2014,11,06,05,49,0.00
2014,11,06,05,50,0.00
2014,11,06,05,51,0.00
2014,11,06,05,52,0.00
2014,11,06,05,53,0.00
2014,11,06,05,54,0.00
2014,11,06,05,55,0.00
2014,11,06,05,56,0.00
2014,11,06,05,57,0.00
2014,11,06,05,58,0.00
2014,11,06,05,59,0.00
2014,11,06,06,00,0.00
2014,11,06,06,01,0.00
2014,11,06,06,02,0.00
2014,11,06,06,03,0.00
2014,11,06,06,04,0.00
2014,11,06,06,05,0.00
2014,11,06,06,06,0.10
2014,11,06,06,07,0.00
2014,11,06,06,08,0.00
2014,11,06,06,09,0.00
2014,11,06,06,10,0.20
2014,11,06,06,11,1.00
2014,11,06,06,12,0.10
2014,11,06,06,13,0.80
2014,11,06,06,14,3.40
2014,11,06,06,15,0.00
2014,11,06,06,16,0.00
2014,11,06,06,17,0.00
2014,11,06,06,18,0.10
2014,11,06,06,19,0.00
2014,11,06,06,20,0.00
2014,11,06,06,21,0.00
2014,11,06,06,22,0.00
2014,11,06,06,23,0.00
2014,11,06,06,24,0.00
2014,11,06,06,25,0.20
2014,11,06,06,26,0.00
2014,11,06,06,27,0.80
2014,11,06,06,28,1.80
2014,11,06,06,29,1.90
2014,11,06,06,30,0.30
2014,11,06,06,31,1.10
2014,11,06,06,32,1.50
2014,11,06,06,33,0.30
2014,11,06,06,34,0.00
2014,11,06,06,35,0.00
2014,11,06,06,36,0.20
2014,11,06,06,37,0.00
2014,11,06,06,38,0.10
2014,11,06,06,39,0.00
2014,11,06,06,40,0.00
2014,11,06,06,41,1.90
2014,11,06,06,42,0.00
2014,11,06,06,43,0.10
2014,11,06,06,44,1.90
2014,11,06,06,45,1.50
2014,11,06,06,46,0.00
2014,11,06,06,47,0.00
2014,11,06,06,48,0.00
2014,11,06,06,49,0.00
2014,11,06,06,50,0.00
2014,11,06,06,51,0.60
2014,11,06,06,52,0.10
2014,11,06,06,53,0.00
2014,11,06,06,54,0.00
2014,11,06,06,55,0.00
2014,11,06,06,56,0.00
2014,11,06,06,57,0.00
2014,11,06,06,58,0.00
2014,11,06,06,59,0.20
2014,11,06,07,00,0.30
2014,11,06,07,01,0.00
2014,11,06,07,02,1.20
2014,11,06,07,03,1.40
2014,11,06,07,04,0.10
2014,11,06,07,05,1.20
2014,11,06,07,06,0.10
2014,11,06,07,07,3.10
2014,11,06,07,08,3.30
2014,11,06,07,09,0.30
2014,11,06,07,10,1.90
2014,11,06,07,11,3.20
2014,11,06,07,12,1.10
2014,11,06,07,13,0.40
2014,11,06,07,14,0.20
2014,11,06,07,15,1.80
2014,11,06,07,16,4.40
2014,11,06,07,17,2.20
2014,11,06,07,18,0.10
2014,11,06,07,19,0.00
2014,11,06,07,20,4.20
2014,11,06,07,21,3.90
2014,11,06,07,22,1.00
2014,11,06,07,23,0.20
2014,11,06,07,24,1.50
2014,11,06,07,25,3.30
2014,11,06,07,26,4.10
2014,11,06,07,27,5.90
2014,11,06,07,28,3.30
2014,11,06,07,29,0.90
2014,11,06,07,30,0.10
2014,11,06,07,31,2.10
2014,11,06,07,32,1.20
2014,11,06,07,33,0.10
2014,11,06,07,34,0.00
2014,11,06,07,35,0.00
2014,11,06,07,36,0.00
2014,11,06,07,37,0.00
2014,11,06,07,38,0.00
2014,11,06,07,39,0.00
2014,11,06,07,40,0.00
2014,11,06,07,41,0.00
2014,11,06,07,42,0.00
2014,11,06,07,43,0.00
2014,11,06,07,44,0.00
2014,11,06,07,45,0.00
2014,11,06,07,46,0.00
2014,11,06,07,47,0.00
2014,11,06,07,48,0.00
2014,11,06,07,49,0.00
2014,11,06,07,50,3.10
2014,11,06,07,51,6.10
2014,11,06,07,52,7.70
2014,11,06,07,53,7.40
2014,11,06,07,54,5.40
2014,11,06,07,55,3.50
2014,11,06,07,56,0.70
2014,11,06,07,57,0.00
2014,11,06,07,58,0.00
2014,11,06,07,59,0.00
2014,11,06,08,00,0.00
2014,11,06,08,01,0.00
2014,11,06,08,02,0.00
2014,11,06,08,03,0.00
2014,11,06,08,04,0.00
2014,11,06,08,05,0.00
2014,11,06,08,06,0.00
2014,11,06,08,07,0.00
2014,11,06,08,08,0.90
2014,11,06,08,09,2.20
2014,11,06,08,10,0.00
2014,11,06,08,11,0.00
2014,11,06,08,12,0.00
2014,11,06,08,13,0.00
2014,11,06,08,14,0.00
2014,11,06,08,15,0.00
2014,11,06,08,16,0.00
2014,11,06,08,17,0.00
2014,11,06,08,18,0.00
2014,11,06,08,19,0.00
2014,11,06,08,20,0.00
2014,11,06,08,21,0.00
2014,11,06,08,22,0.00
2014,11,06,08,23,0.00
2014,11,06,08,24,0.00
2014,11,06,08,25,0.20
2014,11,06,08,26,3.10
2014,11,06,08,27,3.20
2014,11,06,08,28,0.90
2014,11,06,08,29,0.00
2014,11,06,08,30,0.90
2014,11,06,08,31,1.50
2014,11,06,08,32,0.20
2014,11,06,08,33,0.00
2014,11,06,08,34,1.50
2014,11,06,08,35,0.20
2014,11,06,08,36,2.80
2014,11,06,08,37,1.80
2014,11,06,08,38,0.10
2014,11,06,08,39,0.00
2014,11,06,08,40,0.00
2014,11,06,08,41,0.00
2014,11,06,08,42,0.00
2014,11,06,08,43,0.00
2014,11,06,08,44,0.00
2014,11,06,08,45,0.00
2014,11,06,08,46,0.00
2014,11,06,08,47,0.00
2014,11,06,08,48,0.00
2014,11,06,08,49,0.30
2014,11,06,08,50,0.90
2014,11,06,08,51,3.30
2014,11,06,08,52,3.60
2014,11,06,08,53,4.80
2014,11,06,08,54,3.80
2014,11,06,08,55,3.20
2014,11,06,08,56,1.70
2014,11,06,08,57,2.50
2014,11,06,08,58,2.70
2014,11,06,08,59,2.40
2014,11,06,09,00,0.10
2014,11,06,09,01,1.00
2014,11,06,09,02,1.80
2014,11,06,09,03,5.80
2014,11,06,09,04,4.80
2014,11,06,09,05,5.50
2014,11,06,09,06,6.90
2014,11,06,09,07,6.20
2014,11,06,09,08,8.40
2014,11,06,09,09,7.50
2014,11,06,09,10,5.70
2014,11,06,09,11,5.80
2014,11,06,09,12,8.70
2014,11,06,09,13,7.90
2014,11,06,09,14,4.80
2014,11,06,09,15,4.70
2014,11,06,09,16,5.10
2014,11,06,09,17,4.70
2014,11,06,09,18,2.80
2014,11,06,09,19,4.40
2014,11,06,09,20,3.40
2014,11,06,09,21,1.70
2014,11,06,09,22,0.50
2014,11,06,09,23,0.00
2014,11,06,09,24,0.00
2014,11,06,09,25,0.40
2014,11,06,09,26,0.20
2014,11,06,09,27,0.00
2014,11,06,09,28,0.00
2014,11,06,09,29,0.50
2014,11,06,09,30,3.10
2014,11,06,09,31,0.90
2014,11,06,09,32,2.70
2014,11,06,09,33,1.50
2014,11,06,09,34,3.50
2014,11,06,09,35,2.70
2014,11,06,09,36,0.10
2014,11,06,09,37,0.30
2014,11,06,09,38,0.30
2014,11,06,09,39,0.00
2014,11,06,09,40,0.30
2014,11,06,09,41,0.10
2014,11,06,09,42,0.00
2014,11,06,09,43,0.00
2014,11,06,09,44,0.00
2014,11,06,09,45,0.00
2014,11,06,09,46,0.00
2014,11,06,09,47,0.20
2014,11,06,09,48,0.00
2014,11,06,09,49,0.00
2014,11,06,09,50,0.00
2014,11,06,09,51,0.00
2014,11,06,09,52,0.60
2014,11,06,09,53,3.40
2014,11,06,09,54,2.80
2014,11,06,09,55,0.00
2014,11,06,09,56,0.00
2014,11,06,09,57,0.00
2014,11,06,09,58,1.80
2014,11,06,09,59,4.00
2014,11,06,10,00,2.10
2014,11,06,10,01,1.00
2014,11,06,10,02,1.90
2014,11,06,10,03,3.70
2014,11,06,10,04,3.50
2014,11,06,10,05,1.50
2014,11,06,10,06,3.60
2014,11,06,10,07,1.80
2014,11,06,10,08,0.70
2014,11,06,10,09,5.80
2014,11,06,10,10,4.30
2014,11,06,10,11,0.60
2014,11,06,10,12,0.20
2014,11,06,10,13,2.40
2014,11,06,10,14,6.10
2014,11,06,10,15,0.80
2014,11,06,10,16,0.00
2014,11,06,10,17,0.30
2014,11,06,10,18,1.00
2014,11,06,10,19,0.30
2014,11,06,10,20,0.00
2014,11,06,10,21,0.80
2014,11,06,10,22,0.30
2014,11,06,10,23,0.70
2014,11,06,10,24,4.20
2014,11,06,10,25,1.10
2014,11,06,10,26,5.20
2014,11,06,10,27,2.80
2014,11,06,10,28,0.20
2014,11,06,10,29,3.70
2014,11,06,10,30,3.00
2014,11,06,10,31,4.90
2014,11,06,10,32,6.80
2014,11,06,10,33,6.40
2014,11,06,10,34,4.30
2014,11,06,10,35,1.70
2014,11,06,10,36,2.60
2014,11,06,10,37,4.60
2014,11,06,10,38,6.40
2014,11,06,10,39,2.60
2014,11,06,10,40,2.30
2014,11,06,10,41,0.90
2014,11,06,10,42,0.00
2014,11,06,10,43,0.00
2014,11,06,10,44,0.10
2014,11,06,10,45,2.90
2014,11,06,10,46,3.20
2014,11,06,10,47,3.90
2014,11,06,10,48,6.60
2014,11,06,10,49,7.30
2014,11,06,10,50,8.00
2014,11,06,10,51,13.30
2014,11,06,10,52,10.40
2014,11,06,10,53,14.60
2014,11,06,10,54,9.10
2014,11,06,10,55,8.50
2014,11,06,10,56,13.90
2014,11,06,10,57,18.00
2014,11,06,10,58,15.60
2014,11,06,10,59,17.10
2014,11,06,11,00,15.60
2014,11,06,11,01,11.50
2014,11,06,11,02,12.10
2014,11,06,11,03,16.70
2014,11,06,11,04,11.70
2014,11,06,11,05,12.00
2014,11,06,11,06,14.40
2014,11,06,11,07,12.80
2014,11,06,11,08,10.60
2014,11,06,11,09,7.40
2014,11,06,11,10,9.80
2014,11,06,11,11,20.20
2014,11,06,11,12,21.80
2014,11,06,11,13,20.10
2014,11,06,11,14,15.90
2014,11,06,11,15,24.10
2014,11,06,11,16,21.40
2014,11,06,11,17,17.50
2014,11,06,11,18,17.70
2014,11,06,11,19,17.70
2014,11,06,11,20,17.70
2014,11,06,11,21,17.50
2014,11,06,11,22,21.30
2014,11,06,11,23,14.90
2014,11,06,11,24,13.10
2014,11,06,11,25,18.60
2014,11,06,11,26,13.50
2014,11,06,11,27,13.80
2014,11,06,11,28,18.40
2014,11,06,11,29,15.80
2014,11,06,11,30,13.70
2014,11,06,11,31,18.10
2014,11,06,11,32,19.50
2014,11,06,11,33,25.30
2014,11,06,11,34,15.80
2014,11,06,11,35,12.90
2014,11,06,11,36,17.70
2014,11,06,11,37,21.70
2014,11,06,11,38,19.30
2014,11,06,11,39,23.00
2014,11,06,11,40,28.80
2014,11,06,11,41,21.30
2014,11,06,11,42,19.30
2014,11,06,11,43,20.60
2014,11,06,11,44,16.40
2014,11,06,11,45,20.20
2014,11,06,11,46,29.60
2014,11,06,11,47,24.10
2014,11,06,11,48,25.70
2014,11,06,11,49,22.20
2014,11,06,11,50,19.00
2014,11,06,11,51,24.70
2014,11,06,11,52,16.30
2014,11,06,11,53,15.90
2014,11,06,11,54,29.70
2014,11,06,11,55,27.80
2014,11,06,11,56,27.40
2014,11,06,11,57,23.60
2014,11,06,11,58,24.80
2014,11,06,11,59,23.40
2014,11,06,12,00,26.50
2014,11,06,12,01,22.60
2014,11,06,12,02,27.20
2014,11,06,12,03,19.20
2014,11,06,12,04,17.50
2014,11,06,12,05,14.10
2014,11,06,12,06,28.40
2014,11,06,12,07,18.50
2014,11,06,12,08,24.40
2014,11,06,12,09,14.80
2014,11,06,12,10,17.90
2014,11,06,12,11,17.90
2014,11,06,12,12,20.60
2014,11,06,12,13,19.80
2014,11,06,12,14,20.20
2014,11,06,12,15,19.70
2014,11,06,12,16,14.60
2014,11,06,12,17,13.90
2014,11,06,12,18,16.10
2014,11,06,12,19,19.60
2014,11,06,12,20,18.20
2014,11,06,12,21,13.00
2014,11,06,12,22,17.50
2014,11,06,12,23,15.20
2014,11,06,12,24,21.60
2014,11,06,12,25,19.40
2014,11,06,12,26,20.40
2014,11,06,12,27,20.30
2014,11,06,12,28,21.80
2014,11,06,12,29,19.30
2014,11,06,12,30,17.40
2014,11,06,12,31,15.60
2014,11,06,12,32,20.10
2014,11,06,12,33,17.90
2014,11,06,12,34,15.40
2014,11,06,12,35,13.60
2014,11,06,12,36,21.40
2014,11,06,12,37,27.80
2014,11,06,12,38,16.70
2014,11,06,12,39,12.00
2014,11,06,12,40,14.90
2014,11,06,12,41,27.40
2014,11,06,12,42,19.00
2014,11,06,12,43,23.70
2014,11,06,12,44,16.90
2014,11,06,12,45,24.00
2014,11,06,12,46,15.00
2014,11,06,12,47,13.70
2014,11,06,12,48,7.50
2014,11,06,12,49,13.40
2014,11,06,12,50,13.80
2014,11,06,12,51,29.90
2014,11,06,12,52,38.60
2014,11,06,12,53,38.60
2014,11,06,12,54,36.90
2014,11,06,12,55,29.70
2014,11,06,12,56,25.10
2014,11,06,12,57,16.90
2014,11,06,12,58,27.00
2014,11,06,12,59,21.50
2014,11,06,13,00,12.70
2014,11,06,13,01,16.00
2014,11,06,13,02,14.60
2014,11,06,13,03,28.40
2014,11,06,13,04,23.80
2014,11,06,13,05,20.40
2014,11,06,13,06,17.70
2014,11,06,13,07,15.80
2014,11,06,13,08,13.70
2014,11,06,13,09,21.60
2014,11,06,13,10,25.10
2014,11,06,13,11,19.50
2014,11,06,13,12,27.10
2014,11,06,13,13,26.50
2014,11,06,13,14,28.40
2014,11,06,13,15,26.80
2014,11,06,13,16,20.00
2014,11,06,13,17,22.40
2014,11,06,13,18,18.20
2014,11,06,13,19,16.40
2014,11,06,13,20,21.50
2014,11,06,13,21,17.90
2014,11,06,13,22,23.70
2014,11,06,13,23,33.00
2014,11,06,13,24,34.30
2014,11,06,13,25,36.60
2014,11,06,13,26,24.60
2014,11,06,13,27,23.70
2014,11,06,13,28,23.40
2014,11,06,13,29,28.50
2014,11,06,13,30,31.30
2014,11,06,13,31,20.00
2014,11,06,13,32,29.30
2014,11,06,13,33,27.60
2014,11,06,13,34,27.40
2014,11,06,13,35,21.00
2014,11,06,13,36,36.50
2014,11,06,13,37,26.30
2014,11,06,13,38,25.50
2014,11,06,13,39,34.00
2014,11,06,13,40,22.20
2014,11,06,13,41,24.20
2014,11,06,13,42,27.20
2014,11,06,13,43,28.40
2014,11,06,13,44,24.20
2014,11,06,13,45,26.60
2014,11,06,13,46,23.00
2014,11,06,13,47,23.60
2014,11,06,13,48,30.90
2014,11,06,13,49,16.60
2014,11,06,13,50,17.90
2014,11,06,13,51,11.70
2014,11,06,13,52,13.00
2014,11,06,13,53,15.30
2014,11,06,13,54,23.90
2014,11,06,13,55,25.10
2014,11,06,13,56,17.90
2014,11,06,13,57,25.60
2014,11,06,13,58,21.90
2014,11,06,13,59,26.50
2014,11,06,14,00,36.20
2014,11,06,14,01,29.20
2014,11,06,14,02,20.80
2014,11,06,14,03,26.30
2014,11,06,14,04,19.40
2014,11,06,14,05,22.80
2014,11,06,14,06,23.70
2014,11,06,14,07,16.70
2014,11,06,14,08,24.00
2014,11,06,14,09,32.00
2014,11,06,14,10,29.00
2014,11,06,14,11,25.80
2014,11,06,14,12,21.80
2014,11,06,14,13,25.30
2014,11,06,14,14,34.00
2014,11,06,14,15,26.00
2014,11,06,14,16,31.50
2014,11,06,14,17,29.00
2014,11,06,14,18,22.10
2014,11,06,14,19,31.10
2014,11,06,14,20,21.10
2014,11,06,14,21,13.80
2014,11,06,14,22,13.90
2014,11,06,14,23,27.80
2014,11,06,14,24,25.90
2014,11,06,14,25,14.10
2014,11,06,14,26,16.90
2014,11,06,14,27,27.50
2014,11,06,14,28,20.20
2014,11,06,14,29,19.50
2014,11,06,14,30,30.50
2014,11,06,14,31,43.10
2014,11,06,14,32,34.70
2014,11,06,14,33,22.30
2014,11,06,14,34,25.40
2014,11,06,14,35,19.50
2014,11,06,14,36,18.40
2014,11,06,14,37,19.40
2014,11,06,14,38,11.20
2014,11,06,14,39,21.70
2014,11,06,14,40,20.30
2014,11,06,14,41,21.40
2014,11,06,14,42,17.00
2014,11,06,14,43,26.70
2014,11,06,14,44,22.20
2014,11,06,14,45,27.40
2014,11,06,14,46,29.70
2014,11,06,14,47,16.30
2014,11,06,14,48,22.80
2014,11,06,14,49,28.50
2014,11,06,14,50,21.90
2014,11,06,14,51,21.40
2014,11,06,14,52,23.90
2014,11,06,14,53,22.50
2014,11,06,14,54,17.20
2014,11,06,14,55,19.20
2014,11,06,14,56,29.30
2014,11,06,14,57,28.90
2014,11,06,14,58,27.60
2014,11,06,14,59,38.60
2014,11,06,15,00,28.20
2014,11,06,15,01,31.00
2014,11,06,15,02,24.10
2014,11,06,15,03,22.50
2014,11,06,15,04,32.10
2014,11,06,15,05,18.20
2014,11,06,15,06,38.70
2014,11,06,15,07,13.80
2014,11,06,15,08,25.30
2014,11,06,15,09,23.70
2014,11,06,15,10,28.40
2014,11,06,15,11,27.40
2014,11,06,15,12,35.30
2014,11,06,15,13,34.90
2014,11,06,15,14,26.00
2014,11,06,15,15,32.00
2014,11,06,15,16,40.90
2014,11,06,15,17,33.60
2014,11,06,15,18,22.00
2014,11,06,15,19,24.80
2014,11,06,15,20,33.20
2014,11,06,15,21,28.90
2014,11,06,15,22,21.80
2014,11,06,15,23,30.00
2014,11,06,15,24,32.00
2014,11,06,15,25,26.40
2014,11,06,15,26,26.60
2014,11,06,15,27,30.10
2014,11,06,15,28,25.00
2014,11,06,15,29,21.50
2014,11,06,15,30,31.20
2014,11,06,15,31,42.50
2014,11,06,15,32,33.00
2014,11,06,15,33,26.40
2014,11,06,15,34,22.40
2014,11,06,15,35,21.30
2014,11,06,15,36,29.90
2014,11,06,15,37,24.90
2014,11,06,15,38,18.90
2014,11,06,15,39,27.70
2014,11,06,15,40,24.60
2014,11,06,15,41,30.30
2014,11,06,15,42,24.20
2014,11,06,15,43,23.30
2014,11,06,15,44,27.40
2014,11,06,15,45,28.40
2014,11,06,15,46,32.90
2014,11,06,15,47,25.30
2014,11,06,15,48,34.90
2014,11,06,15,49,27.10
2014,11,06,15,50,28.90
2014,11,06,15,51,33.20
2014,11,06,15,52,21.10
2014,11,06,15,53,18.70
2014,11,06,15,54,17.30
2014,11,06,15,55,26.20
2014,11,06,15,56,26.70
2014,11,06,15,57,29.20
2014,11,06,15,58,23.40
2014,11,06,15,59,38.60
2014,11,06,16,00,25.00
2014,11,06,16,01,31.20
2014,11,06,16,02,28.00
2014,11,06,16,03,31.70
2014,11,06,16,04,21.90
2014,11,06,16,05,18.80
2014,11,06,16,06,28.10
2014,11,06,16,07,41.10
2014,11,06,16,08,22.10
2014,11,06,16,09,31.50
2014,11,06,16,10,23.50
2014,11,06,16,11,27.40
2014,11,06,16,12,22.00
2014,11,06,16,13,31.10
2014,11,06,16,14,27.20
2014,11,06,16,15,31.80
2014,11,06,16,16,35.60
2014,11,06,16,17,36.10
2014,11,06,16,18,41.80
2014,11,06,16,19,42.60
2014,11,06,16,20,43.80
2014,11,06,16,21,24.50
2014,11,06,16,22,15.50
2014,11,06,16,23,13.10
2014,11,06,16,24,19.70
2014,11,06,16,25,28.50
2014,11,06,16,26,31.00
2014,11,06,16,27,23.40
2014,11,06,16,28,18.80
2014,11,06,16,29,29.30
2014,11,06,16,30,24.60
2014,11,06,16,31,37.20
2014,11,06,16,32,23.80
2014,11,06,16,33,24.70
2014,11,06,16,34,19.10
2014,11,06,16,35,24.30
2014,11,06,16,36,27.80
2014,11,06,16,37,31.60
2014,11,06,16,38,26.20
2014,11,06,16,39,23.20
2014,11,06,16,40,30.20
2014,11,06,16,41,46.00
2014,11,06,16,42,38.00
2014,11,06,16,43,27.00
2014,11,06,16,44,27.30
2014,11,06,16,45,39.20
2014,11,06,16,46,29.90
2014,11,06,16,47,41.40
2014,11,06,16,48,35.20
2014,11,06,16,49,33.30
2014,11,06,16,50,33.10
2014,11,06,16,51,22.10
2014,11,06,16,52,26.80
2014,11,06,16,53,26.70
2014,11,06,16,54,30.20
2014,11,06,16,55,23.10
2014,11,06,16,56,22.80
2014,11,06,16,57,23.50
2014,11,06,16,58,32.40
2014,11,06,16,59,42.90
2014,11,06,17,00,35.60
2014,11,06,17,01,29.00
2014,11,06,17,02,34.80
2014,11,06,17,03,20.50
2014,11,06,17,04,25.90
2014,11,06,17,05,19.20
2014,11,06,17,06,39.00
2014,11,06,17,07,37.00
2014,11,06,17,08,31.50
2014,11,06,17,09,26.10
2014,11,06,17,10,26.00
2014,11,06,17,11,22.20
2014,11,06,17,12,26.20
2014,11,06,17,13,33.80
2014,11,06,17,14,23.50
2014,11,06,17,15,29.00
2014,11,06,17,16,39.00
2014,11,06,17,17,47.90
2014,11,06,17,18,38.60
2014,11,06,17,19,29.90
2014,11,06,17,20,27.10
2014,11,06,17,21,37.50
2014,11,06,17,22,27.90
2014,11,06,17,23,39.30
2014,11,06,17,24,26.90
2014,11,06,17,25,33.00
2014,11,06,17,26,38.60
2014,11,06,17,27,38.60
2014,11,06,17,28,38.60
2014,11,06,17,29,38.60
2014,11,06,17,30,38.60
2014,11,06,17,31,33.40
2014,11,06,17,32,25.30
2014,11,06,17,33,30.40
2014,11,06,17,34,30.80
2014,11,06,17,35,25.00
2014,11,06,17,36,23.50
2014,11,06,17,37,39.00
2014,11,06,17,38,27.40
2014,11,06,17,39,23.50
2014,11,06,17,40,19.00
2014,11,06,17,41,22.50
2014,11,06,17,42,20.10
2014,11,06,17,43,27.00
2014,11,06,17,44,22.20
2014,11,06,17,45,34.30
2014,11,06,17,46,29.70
2014,11,06,17,47,37.70
2014,11,06,17,48,22.70
2014,11,06,17,49,27.30
2014,11,06,17,50,24.10
2014,11,06,17,51,22.30
2014,11,06,17,52,20.00
2014,11,06,17,53,14.30
2014,11,06,17,54,15.20
2014,11,06,17,55,22.50
2014,11,06,17,56,20.50
2014,11,06,17,57,21.50
2014,11,06,17,58,31.00
2014,11,06,17,59,16.10
2014,11,06,18,00,19.10
2014,11,06,18,01,27.10
2014,11,06,18,02,24.20
2014,11,06,18,03,21.00
2014,11,06,18,04,27.00
2014,11,06,18,05,21.00
2014,11,06,18,06,31.40
2014,11,06,18,07,26.80
2014,11,06,18,08,34.00
2014,11,06,18,09,29.40
2014,11,06,18,10,26.80
2014,11,06,18,11,36.30
2014,11,06,18,12,27.00
2014,11,06,18,13,33.40
2014,11,06,18,14,30.40
2014,11,06,18,15,31.90
2014,11,06,18,16,22.00
2014,11,06,18,17,35.20
2014,11,06,18,18,47.90